Regional Weather Roundup
Issued by NWS

Home | Current Version | Previous Version | Graphics & Text | Print | Product List | Glossary On
Versions: 1 2 3 4 5 6 7 8 9 10 11 12 13 14 15 16 17 18 19 20 21 22 23 24 25 26 27 28 29 30 31 32 33 34 35 36 37 38 39 40 41 42 43 44 45 46 47 48 49 50
000
ASUS43 KLOT 010600
RWRIL

ILLINOIS REGIONAL WEATHER ROUNDUP
NATIONAL WEATHER SERVICE CHICAGO/ROMEOVILLE IL
1200 AM CST SUN FEB 01 2015

NOTE: "FAIR" INDICATES FEW OR NO CLOUDS BELOW 12,000 FEET WITH NO
SIGNIFICANT WEATHER AND/OR OBSTRUCTIONS TO VISIBILITY.

* THESE STATIONS ARE NOT UNDER NWS QUALITY CONTROL. THEY ALSO MAY NOT
  REPORT WEATHER SUCH AS PRECIPITATION OR FOG.

ILZ001-002-007-009-015-016-024-010700-
NORTHWEST ILLINOIS

CITY           SKY/WX    TMP DP  RH WIND       PRES   REMARKS
MOLINE         LGT SNOW  32  30  92 E7        30.05F VSB 1   WCI  26
6HR MIN TEMP:  32; 6HR MAX TEMP:  34; 6HR PCP:  0.27;

STERLING*        N/A    N/A N/A N/A MISG        N/A
$$

ILZ003-004-008-010-011-017-018-010700-
NORTH CENTRAL ILLINOIS

CITY           SKY/WX    TMP DP  RH WIND       PRES   REMARKS
ROCKFORD       LGT SNOW  31  28  89 E10       30.13F VSB 1   WCI  22
6HR MIN TEMP:  31; 6HR MAX TEMP:  35; 6HR PCP:  0.14;

$$

ILZ005-006-012>014-019>023-010700-
NORTHEAST ILLINOIS

CITY           SKY/WX    TMP DP  RH WIND       PRES   REMARKS
CHICAGO-OHARE  LGT SNOW  30  29  96 NE8       30.14F VSB 3/4 WCI  22
6HR MIN TEMP:  30; 6HR MAX TEMP:  35; 6HR PCP:  0.12;

CHICAGO-MIDWAY LGT SNOW  33  31  92 E8        30.14F VSB 1   WCI  26
6HR MIN TEMP:  33; 6HR MAX TEMP:  38; 6HR PCP:  0.12;

AURORA         LGT SNOW  33  31  92 E3        30.13F VSB 3/4
6HR MIN TEMP:  33; 6HR MAX TEMP:  35; 6HR PCP:  0.08;

WAUKEGAN       LGT SNOW  30  29  96 NE8       30.15F VSB 3/4 WCI  22
6HR MIN TEMP:  30; 6HR MAX TEMP:  32; 6HR PCP: TRACE;

DUPAGE AIRPORT LGT SNOW  31  29  92 E9        30.12F FOG     WCI  23
6HR MIN TEMP:  31; 6HR MAX TEMP:  34; 6HR PCP:  0.10;

WHEELING       LGT SNOW  31  29  92 NE5       30.17F VSB 1   WCI  26
6HR MIN TEMP:  30; 6HR MAX TEMP:  35; 6HR PCP: TRACE;

NORTHERLY ISL    N/A     31  30  96 NE9         N/A  WCI  23
$$

LMZ740>746-010700-
SOUTHERN LAKE MICHIGAN

STATION/POSITION SKY/WX   TEMP    WIND        PRES    VSBY  WAVE
                          AIR SEA DIR/SP/G                  HT/PER
                          (F)     (DEG/KT/KT) (MB)    (MI)  (FT/S)
WAUKEGAN HARBOR            30      60/ 12/ 14   N/A
HARRISON CRIB              31      60/  9/ 10   N/A
BURNHAM HARBOR             31      30/  6       N/A
CALUMET HARBOR             31      60/  6/  8   N/A
MICHIGAN CITY              30      30/ 10/ 10   N/A
$$

ILZ025>027-034>036-040-047-049-050-058-095>099-010700-
WEST-CENTRAL ILLINOIS

CITY           SKY/WX    TMP DP  RH WIND       PRES   REMARKS
QUINCY         LGT RAIN  33  31  92 E10       29.99F FOG     WCI  25
$$

ILZ028>032-037-038-041>044-048-051>054-059>061-010700-
CENTRAL ILLINOIS

CITY           SKY/WX    TMP DP  RH WIND       PRES   REMARKS
BLOOMINGTON    CLOUDY    34  34 100 S9        30.12F FOG     WCI  26
DECATUR        CLOUDY    34  32  92 SE7       30.11F WCI  28
PEORIA         LGT SNOW  34  32  92 S6        30.09F FOG     WCI  29
6HR MIN TEMP:  34; 6HR MAX TEMP:  36; 6HR PCP:  0.18;

SPRINGFIELD    LGT RAIN  34  32  92 E10       30.07F FOG     WCI  26
6HR MIN TEMP:  34; 6HR MAX TEMP:  36; 6HR PCP:  0.14;

TAYLORVILLE    NOT AVBL
$$

ILZ033-039-045-046-055>057-062-063-010700-
EAST-CENTRAL ILLINOIS

CITY           SKY/WX    TMP DP  RH WIND       PRES   REMARKS
CHAMPAIGN      CLOUDY    33  32  96 E6        30.12F FOG     WCI  28
MATTOON        CLOUDY    33  30  88 SE7       30.12F WCI  27
$$

ILZ079-100>102-010700-
SOUTHWEST ILLINOIS

CITY           SKY/WX    TMP DP  RH WIND       PRES   REMARKS
BELLEVILLE     CLOUDY    38  28  69 E15       30.01F WCI  29
CAHOKIA*       CLOUDY    39  27  62 S6        30.04F WCI  35
$$

ILZ064>066-069>071-074>076-080>082-084>086-088>090-092>094-010700-
SOUTH-CENTRAL ILLINOIS

CITY           SKY/WX    TMP DP  RH WIND       PRES   REMARKS
CARBONDALE     CLOUDY    39  25  57 SE7       30.07F WCI  34
6HR MIN TEMP:  37; 6HR MAX TEMP:  40;

MT. VERNON     CLOUDY    37  25  60 NE6       30.09F WCI  33
$$

ILZ067-068-072-073-078-083-087-091-010700-
SOUTHEAST ILLINOIS

CITY           SKY/WX    TMP DP  RH WIND       PRES   REMARKS
LAWRENCEVILLE  CLOUDY    36  28  73 CALM      30.15F
$$

ABBREVIATIONS USED IN REMARKS
   TC - TEMPERATURE IN CELSIUS
  WCI - WIND CHILL INDEX
   HX - HEAT INDEX
  VSB - VISIBILITY
$$




USA.gov is the U.S. government's official web portal to all federal, state and local government web resources and services.